Wind_Speed
6 6 6 6 5 6 5 5 5 5 5 5 6 7 7 8 8 8 10 11 12 12 12 12 12 11 9 9 8 8 7 7 7 7 7 7 7 6 6 6 6 7 7
7 7 6 6 5 5 6 5 5 5 5 5 5 6 7 7 7 9 9 10 11 12 12 12 12 11 10 10 9 8 8 7 7 7 8 7 7 7 7 7 6 6 7
7 7 6 6 6 6 6 6 5 5 5 5 6 6 7 7 7 8 9 9 10 10 11 11 11 11 11 10 9 9 8 8 8 8 8 7 7 8 9 8 8 7 7
8 7 7 7 7 6 6 6 6 6 5 6 6 7 7 7 7 9 9 9 10 11 11 11 10 10 10 10 9 9 9 9 8 8 8 8 8 8 8 8 9 8 8
8 8 8 7 7 7 6 6 5 6 6 6 7 7 7 7 7 8 8 9 9 10 11 10 10 10 10 10 9 9 9 9 9 9 9 9 9 9 9 9 9 10 9
9 9 9 8 8 7 7 6 5 6 6 6 7 7 7 7 8 8 8 9 9 10 11 11 11 10 11 11 10 10 9 10 9 9 9 9 9 9 10 10 10 10 10
10 10 10 9 9 8 7 7 6 6 5 5 6 7 7 7 8 8 8 9 10 10 11 11 11 11 12 12 11 11 11 11 10 10 9 10 10 9 10 11 11 11 11
11 10 10 10 9 9 9 7 7 7 6 6 6 7 7 8 8 9 10 10 10 10 11 11 12 12 12 13 13 13 13 12 11 10 10 10 10 10 10 10 11 11 11
10 9 8 9 9 9 9 9 8 8 8 7 7 8 8 8 8 8 9 10 11 11 11 11 11 12 12 12 12 13 12 12 11 11 12 12 12 12 12 11 11 11 11
9 9 9 8 9 9 9 9 9 9 9 10 9 9 9 9 9 8 9 9 9 9 10 10 10 10 11 11 11 11 11 11 12 12 12 12 12 12 12 12 12 11 12
11 10 9 9 9 10 10 10 10 10 10 10 10 10 11 10 10 9 9 10 10 9 10 10 10 10 10 11 11 11 12 12 12 12 12 12 12 12 13 13 13 13 12
12 11 10 10 10 11 11 11 11 11 11 12 11 11 11 11 11 11 11 10 11 11 10 10 11 11 12 12 12 13 13 13 13 14 13 12 12 13 13 14 13 13 12
12 12 12 11 11 12 12 12 13 13 13 13 13 13 12 12 12 12 11 11 12 12 12 12 12 12 12 13 13 13 13 14 14 15 15 14 14 14 14 15 15 14 14
14 13 13 13 12 13 13 14 13 14 14 13 14 14 14 13 13 13 13 13 14 14 14 14 14 13 13 14 14 15 15 15 16 16 16 16 16 16 16 16 16 16 16
15 15 14 14 14 13 14 14 15 15 15 15 14 14 15 15 15 15 16 15 15 16 16 16 15 15 15 16 16 16 16 17 17 17 17 17 17 17 17 17 16 16 16
17 17 16 15 15 14 15 15 15 16 17 17 16 15 15 16 16 16 16 17 17 17 17 17 17 17 17 17 18 18 18 18 18 18 18 18 18 18 19 19 19 18 18
19 19 18 17 17 16 15 15 16 16 17 18 17 16 16 16 16 17 17 18 18 18 18 19 19 19 18 18 19 20 20 20 20 20 20 20 20 20 20 20 20 20 20
20 20 19 18 18 18 17 17 17 17 18 18 18 18 18 18 17 18 18 18 19 19 19 19 20 20 20 20 20 20 20 20 20 20 20 21 21 21 21 22 21 22 22
20 20 20 19 19 19 19 18 18 18 19 19 19 19 19 19 18 18 19 19 19 19 19 20 20 21 21 21 22 22 22 22 22 22 22 23 23 23 23 22 22 22 23
20 21 21 21 20 20 20 19 19 19 20 20 20 20 20 20 20 20 20 20 20 20 20 21 21 22 22 22 23 23 23 23 23 23 23 24 24 24 24 24 23 23 23
21 20 21 21 21 21 21 20 20 20 20 20 20 21 21 21 21 21 21 21 21 21 22 22 22 23 23 22 22 23 23 24 24 24 24 24 24 24 24 25 25 24 24
20 21 21 21 21 21 21 21 21 21 21 21 22 22 22 23 22 23 23 23 22 23 23 23 23 23 23 23 22 23 24 24 24 25 24 24 25 24 24 24 25 24 24
20 21 21 22 22 21 21 22 22 22 22 22 23 23 23 24 24 24 24 24 24 24 25 24 24 24 24 24 24 24 24 25 24 24 25 25 25 25 25 24 24 25 25
20 20 20 21 22 23 23 23 23 23 23 23 24 25 24 24 24 24 25 25 25 25 26 26 25 25 25 25 25 25 25 25 25 25 25 25 25 25 25 24 25 25 25
20 20 20 21 22 22 22 23 23 24 24 24 24 25 25 25 25 25 25 26 25 25 26 26 26 26 26 26 26 27 26 26 26 27 27 26 25 25 25 25 26 25 26
20 20 21 21 21 21 21 22 22 23 24 24 25 25 25 25 25 25 25 25 25 26 26 26 26 26 26 27 27 28 28 28 28 27 26 26 26 25 25 26 26 27 27
Wind_Direction
288 283 281 279 279 280 284 289 295 278 272 248 229 222 219 216 222 223 220 221 219 220 218 218 216 216 215 212 216 226 232 238 239 242 245 247 243 247 251 249 246 246 248
293 286 280 276 272 274 279 283 289 276 266 257 238 219 217 220 220 224 223 223 224 223 221 218 216 215 216 218 220 225 233 238 247 248 252 249 246 248 248 249 248 251 253
292 287 282 278 270 267 270 276 279 272 262 253 235 222 221 228 228 223 225 221 223 221 218 218 222 221 221 222 221 227 235 241 251 252 253 249 249 252 250 249 250 253 254
288 285 281 279 275 264 263 271 273 273 263 247 235 226 225 232 231 226 225 222 221 219 216 216 219 218 218 222 223 231 239 246 251 254 255 252 253 254 252 250 251 248 249
287 284 284 280 276 266 261 263 268 270 266 249 236 227 225 236 226 220 218 216 214 214 212 209 212 217 222 224 225 233 240 244 251 257 260 253 250 253 254 254 252 248 249
280 280 280 279 275 266 259 256 260 262 258 250 236 230 229 232 222 216 220 216 210 211 212 215 217 222 227 227 230 235 239 244 251 259 261 256 253 252 254 256 256 252 250
278 278 276 269 268 263 255 250 248 248 247 238 230 227 224 228 222 222 220 219 217 215 218 222 224 226 227 234 234 236 240 247 253 256 258 258 257 253 253 253 254 255 251
289 286 269 263 262 259 256 248 243 241 239 238 236 232 227 230 228 221 220 221 222 221 223 224 226 230 234 235 234 236 242 244 249 254 256 257 258 255 253 253 251 252 252
289 285 275 264 259 259 259 247 242 240 237 236 240 239 238 238 232 231 225 222 223 226 227 231 231 232 234 238 239 241 244 244 249 254 255 256 257 254 252 254 251 253 254
282 284 270 262 258 257 255 247 246 243 240 238 241 238 239 243 238 241 237 232 231 229 231 236 237 238 243 245 249 249 249 249 249 252 255 256 257 256 252 251 250 253 257
279 276 269 262 257 257 258 255 252 247 246 244 242 239 239 240 241 243 243 240 238 238 241 241 243 247 251 252 255 257 258 258 257 257 258 257 260 259 256 253 252 255 258
275 269 266 262 259 260 260 257 256 255 249 247 246 245 244 242 242 245 248 243 240 242 244 245 246 249 250 249 253 255 258 261 259 261 262 263 265 263 262 257 255 258 258
276 273 270 267 262 261 260 260 258 257 253 249 247 249 249 248 244 243 245 245 245 247 248 250 251 252 253 254 257 259 258 258 259 261 261 262 264 266 266 262 261 262 265
276 274 274 272 266 263 262 263 263 259 256 254 251 250 250 248 245 244 247 250 250 251 253 254 253 254 255 257 260 262 260 261 263 264 265 264 265 266 266 263 261 262 265
272 273 275 275 269 267 265 266 265 261 258 256 253 248 249 248 249 250 250 250 252 253 257 258 257 256 257 258 261 263 264 263 264 268 267 266 266 265 265 263 263 262 262
269 269 270 272 270 269 266 267 267 262 259 258 256 250 249 249 252 255 254 253 255 258 259 259 259 261 261 263 264 264 264 263 265 267 266 266 265 266 263 262 263 263 263
267 267 269 269 270 271 272 270 266 262 260 259 256 255 254 254 255 258 260 259 257 259 260 259 259 260 261 265 266 266 266 264 263 265 266 266 266 265 264 264 263 263 264
265 266 268 268 269 270 272 271 268 264 262 260 256 254 255 257 259 258 261 262 261 259 260 260 260 261 262 265 266 267 266 265 265 264 265 266 266 267 267 266 266 266 265
265 266 266 266 266 267 269 270 268 264 262 261 259 257 257 258 262 261 262 263 264 264 264 262 262 263 265 267 268 268 267 266 266 265 265 266 266 266 267 268 269 269 268
265 264 264 264 264 265 267 268 267 266 263 262 260 260 259 258 261 264 265 264 265 266 266 265 265 265 266 267 269 270 269 268 268 267 267 267 267 265 266 267 267 268 269
263 264 264 264 264 265 266 266 266 266 263 261 260 261 262 261 260 264 265 266 267 268 268 267 267 267 267 269 270 270 270 270 270 269 270 270 270 267 267 268 268 267 269
265 264 264 264 264 266 266 266 266 266 264 264 263 263 263 263 263 263 264 265 266 268 268 269 268 267 267 267 268 270 272 271 272 271 270 270 269 268 270 270 269 269 268
265 265 265 265 266 267 268 267 266 266 264 264 264 265 264 264 265 265 266 266 266 266 268 268 266 267 266 266 267 269 271 271 272 272 270 270 269 270 270 269 268 269 269
265 267 268 268 267 267 268 266 266 268 267 265 264 263 263 265 265 266 268 268 268 267 266 265 266 265 265 267 268 268 269 270 271 271 271 271 271 270 268 268 268 269 269
267 268 270 271 269 268 267 266 265 265 267 267 266 265 265 265 265 266 268 268 268 268 266 264 265 266 266 267 267 267 267 268 270 271 272 270 268 267 267 267 268 269 270
268 268 271 272 270 267 266 266 265 265 267 268 269 268 267 266 265 265 266 266 267 267 267 266 264 265 266 267 267 267 267 268 269 270 269 267 267 267 268 268 269 270 270
Height
5870 5869 5868 5867 5867 5866 5865 5864 5863 5863 5862 5862 5862 5862 5862 5863 5863 5864 5865 5866 5867 5868 5870 5872 5873 5875 5876 5877 5878 5879 5880 5881 5881 5882 5882 5882 5882 5882 5882 5882 5882 5882 5883
5868 5867 5866 5866 5865 5864 5863 5863 5862 5861 5861 5860 5860 5861 5861 5862 5862 5863 5863 5864 5865 5866 5868 5870 5872 5873 5875 5876 5877 5878 5879 5880 5880 5880 5880 5880 5880 5881 5881 5881 5881 5881 5881
5866 5865 5865 5864 5863 5862 5862 5861 5860 5859 5859 5858 5859 5859 5860 5861 5861 5861 5862 5862 5863 5864 5866 5868 5870 5872 5873 5874 5875 5877 5877 5878 5879 5879 5879 5879 5879 5879 5879 5880 5880 5880 5880
5864 5864 5863 5862 5862 5861 5860 5860 5859 5857 5857 5856 5857 5858 5859 5859 5859 5860 5860 5861 5861 5862 5864 5867 5869 5870 5872 5873 5874 5875 5876 5876 5877 5877 5877 5877 5877 5878 5878 5878 5878 5878 5879
5862 5862 5861 5860 5860 5859 5859 5858 5857 5856 5855 5855 5855 5856 5857 5858 5858 5859 5859 5860 5860 5861 5863 5865 5868 5869 5871 5871 5872 5874 5874 5875 5875 5875 5875 5875 5876 5876 5876 5876 5876 5876 5877
5860 5859 5858 5858 5857 5857 5857 5857 5856 5855 5854 5854 5854 5855 5856 5857 5857 5858 5859 5859 5860 5861 5863 5864 5866 5868 5869 5870 5871 5872 5872 5873 5874 5874 5874 5874 5874 5874 5874 5874 5874 5874 5875
5857 5856 5856 5855 5855 5855 5855 5855 5855 5855 5854 5854 5854 5855 5855 5856 5857 5858 5858 5859 5860 5861 5862 5863 5865 5866 5867 5868 5869 5870 5870 5871 5871 5871 5872 5872 5872 5872 5872 5872 5872 5872 5873
5855 5854 5853 5853 5853 5853 5854 5853 5853 5854 5854 5854 5854 5854 5855 5856 5855 5856 5857 5858 5859 5860 5861 5862 5863 5864 5865 5866 5867 5867 5868 5868 5869 5869 5869 5869 5869 5869 5869 5869 5870 5870 5870
5852 5851 5851 5851 5851 5851 5852 5851 5852 5852 5852 5853 5853 5854 5854 5854 5855 5855 5855 5856 5857 5858 5860 5861 5861 5862 5863 5863 5864 5865 5866 5866 5866 5866 5866 5866 5867 5867 5867 5867 5867 5867 5868
5849 5849 5848 5848 5849 5849 5850 5850 5850 5850 5851 5851 5852 5852 5853 5853 5853 5854 5854 5855 5855 5857 5858 5859 5860 5860 5861 5861 5862 5863 5863 5863 5864 5864 5864 5864 5864 5864 5864 5864 5864 5865 5865
5847 5846 5846 5846 5846 5847 5847 5847 5848 5848 5848 5849 5850 5850 5850 5851 5852 5852 5853 5853 5854 5855 5856 5857 5858 5858 5859 5859 5860 5860 5861 5861 5861 5861 5861 5861 5861 5861 5861 5861 5862 5862 5862
5843 5844 5844 5844 5844 5844 5844 5845 5845 5845 5846 5847 5847 5848 5848 5849 5849 5850 5851 5851 5852 5853 5854 5854 5855 5856 5856 5857 5858 5858 5858 5859 5859 5859 5858 5858 5858 5858 5858 5858 5858 5858 5859
5841 5841 5841 5840 5840 5841 5841 5842 5842 5842 5843 5843 5844 5845 5846 5846 5847 5848 5848 5849 5850 5851 5851 5852 5853 5853 5854 5854 5854 5855 5855 5855 5855 5855 5855 5855 5855 5855 5855 5855 5855 5855 5855
5838 5838 5838 5837 5837 5837 5838 5838 5839 5839 5839 5840 5841 5841 5842 5843 5844 5845 5845 5846 5847 5847 5848 5849 5849 5850 5850 5851 5851 5851 5851 5852 5852 5852 5852 5852 5852 5852 5852 5852 5852 5852 5852
5834 5834 5834 5834 5834 5834 5834 5835 5835 5835 5836 5837 5837 5838 5839 5840 5841 5841 5842 5843 5844 5844 5845 5845 5846 5846 5847 5847 5847 5847 5848 5848 5848 5848 5848 5848 5848 5848 5848 5848 5848 5848 5848
5830 5830 5830 5830 5830 5830 5830 5831 5831 5831 5832 5833 5833 5834 5835 5836 5837 5837 5838 5839 5840 5840 5841 5841 5842 5842 5842 5843 5843 5843 5843 5843 5843 5843 5844 5843 5843 5844 5844 5844 5844 5844 5844
5825 5825 5825 5826 5826 5826 5826 5826 5826 5827 5827 5828 5829 5830 5831 5832 5832 5833 5834 5834 5835 5836 5836 5837 5837 5837 5838 5838 5838 5838 5838 5839 5838 5839 5839 5839 5839 5839 5839 5839 5839 5839 5839
5819 5820 5820 5821 5821 5821 5821 5822 5822 5822 5823 5824 5824 5825 5826 5827 5828 5829 5829 5830 5830 5830 5831 5832 5832 5832 5833 5833 5833 5833 5833 5833 5833 5833 5834 5834 5834 5834 5834 5834 5834 5834 5834
5813 5814 5815 5815 5816 5816 5816 5817 5817 5818 5818 5819 5819 5820 5821 5822 5823 5824 5824 5825 5825 5825 5826 5826 5827 5827 5827 5827 5828 5828 5827 5827 5828 5828 5828 5828 5828 5828 5828 5828 5828 5828 5828
5807 5808 5809 5810 5810 5811 5811 5811 5812 5812 5813 5814 5814 5815 5816 5817 5818 5819 5819 5819 5819 5820 5820 5821 5821 5821 5821 5821 5822 5822 5822 5822 5822 5822 5822 5822 5822 5822 5822 5822 5822 5822 5822
5802 5802 5803 5804 5804 5805 5805 5806 5806 5807 5807 5808 5809 5810 5810 5811 5812 5813 5814 5814 5814 5814 5814 5815 5815 5815 5815 5815 5815 5816 5815 5815 5815 5815 5815 5815 5815 5815 5815 5815 5815 5816 5816
5795 5796 5797 5798 5798 5799 5799 5800 5801 5801 5801 5802 5803 5803 5804 5805 5806 5807 5808 5808 5808 5808 5808 5808 5809 5809 5809 5809 5809 5809 5809 5809 5809 5809 5808 5808 5808 5808 5808 5808 5808 5809 5809
5789 5790 5791 5791 5792 5793 5793 5794 5794 5795 5795 5796 5796 5797 5798 5798 5799 5800 5801 5801 5801 5801 5802 5802 5802 5803 5803 5803 5803 5803 5802 5802 5802 5801 5801 5801 5801 5800 5801 5801 5801 5801 5802
5783 5784 5784 5784 5785 5786 5786 5787 5787 5788 5788 5789 5790 5790 5791 5791 5792 5793 5793 5793 5794 5794 5794 5795 5795 5795 5795 5795 5796 5796 5795 5795 5794 5794 5793 5793 5793 5793 5793 5794 5794 5794 5794
5778 5778 5778 5778 5778 5779 5779 5780 5780 5781 5781 5782 5782 5783 5783 5784 5785 5785 5786 5786 5786 5786 5786 5787 5787 5788 5788 5788 5788 5788 5787 5787 5787 5787 5786 5786 5786 5786 5786 5786 5786 5786 5786
5771 5772 5772 5771 5771 5772 5772 5773 5773 5773 5774 5775 5775 5775 5776 5777 5777 5777 5778 5778 5779 5779 5779 5779 5779 5779 5780 5779 5779 5779 5779 5779 5779 5779 5778 5778 5778 5778 5779 5779 5778 5778 5778